sat.trackr.live / text

‹ back to catalog

STARLINK-6038

NORAD 56317 · 2023-058A

PAYLOAD ACTIVE UNKNOWN

§ Identity

Operator
Country
US
Launch date
2023-04-27
Launch site
AFWTR
Launch vehicle
Mass (kg)
RCS (m²)

Purposes: comms

External: N2YO · Heavens-Above · Gunter

§ Orbital elements

Epoch: 2026-05-24T23:03:38.380032Z

Period
95.64 min
Inclination
97.4530°
Eccentricity
0.0001590
Mean motion
15.05674629 rev/d
Perigee alt
548.3 km
Apogee alt
550.5 km
Semi-major
6,927.6 km
B*
-5.9475e-5
RAAN
146.0363°
Arg perigee
84.0828°
Mean anomaly
276.0580°
Rev number
16,932

§ Raw data

STARLINK-60381 56317U 23058A   26144.96086088 -.00000917  00000+0 -59475-4 0  99942 56317  97.4530 146.0363 0001590  84.0828 276.0580 15.05674629169324

JSON: /api/v1/satellites/56317 · /tle

For live sub-satellite position, see the globe view (requires WebGL).

§ Visibility from observer

Set your observer location to see the next 7 days of passes ≥ 10°. The values pass through the URL so the page stays shareable.

No JS? Fill the form by hand. The geolocation button needs JavaScript.